User: anonymous   Login
Location: Unspecified
(0.0000°N, 0.0000°E)
Time: 07:26:39
(UTC+00:00)
Language:

N. Korean satellite - Orbit

View from above orbital plane
View from above orbital plane
View from above satellite
View from above satellite

Ground track
Ground track

The orbit data is extracted from the following two-line orbital elements,

1 39026U 12072A   20224.88904231 +.00001615 +00000-0 +59198-4 0  9996
2 39026 097.2251 220.0524 0038653 048.7624 311.6936 15.28734061425714
Epoch (UTC): 11 August 2020 21:20:13
Eccentricity: 0.0038653
inclination: 97.2251°
perigee height: 453 km
apogee height: 506 km
right ascension of ascending node: 220.0524°
argument of perigee: 48.7624°
revolutions per day: 15.28734061
mean anomaly at epoch: 311.6936°
orbit number at epoch: 42571

The dashed part of the orbit path shows where the satellite is in the earth's shadow,  

DLR